< < Back
Terminal Aerodrome Forecast


Current Version              Previous Versions:   1  2  3  4  5  6  7  8  9  

Terminal Aerodrome Forecast

994
FTUS42 KTAE 271738
TAFVLD
TAF
KVLD 271738Z 2718/2818 14004KT P6SM VCTS SCT025 BKN040CB
     FM280100 10003KT P6SM BKN250
      TEMPO 2811/2814 4SM BR BKN010=

Latest METAR

280
SAUS70 KWBC 280000 RRC
MTRVLD
METAR KVLD 272353Z 05003KT 10SM FEW055 27/20 A3013 RMK AO2 SLP208 60000
T02670200 10317 20267 56005


USA.gov is the U.S. government's official web portal to all federal, state and local government web resources and services.